Flag for China Weather past 2 weeks in Suzhou, Jiangsu, China

Now
72 °F

Passing clouds.


Feels Like: 72 °F
Forecast: 66 / 82 °F
Wind: 6 mph from Northeast

Location: Shanghai Hongqiao Airport

Current Time: May 30, 2015 at 8:54:40 PM

Latest Report: May 30, 2015 at 8:00 PM


Visibility: N/A

Pressure: 29.74 "Hg

Humidity: 78%

Dew point: 64 °F

Location of SuzhouLocation

Historic Weather in Suzhou — Graph

°F

Suzhou temperature yesterday

Maximum temperature yesterday: 77 °F (at 3:00 PM)
Minimum temperature yesterday: 70 °F (at 12:00 AM)
Average temperature yesterday: 73 °F

Past Weeks' High & Low Weather Summary

 TemperatureHumidityPressure
High84 °F (May 19, 1:30 PM)100% (May 15, 9:00 PM)30.07 "Hg (May 15, 9:00 PM)
Low59 °F (May 21, 2:30 AM)24% (May 17, 1:00 PM)29.59 "Hg (May 18, 3:30 AM)
Average71 °F71%29.79 "Hg
* Reported May 15 7:00 PM — May 30 7:30 PM, Suzhou, Weather by CustomWeather, © 2015

Note: Actual official high and low records may vary slightly from our data, if they occured in-between our weather recording intervals... More about our weather records

Advertising

Suzhou weather history for previous 24 hours

 ConditionsComfort  
Time TempWeatherWind HumidityBarometerVisibility
7:30 PM
Sat, May 30
72 °FPassing clouds.3 mph78%29.74 "HgN/A
7:00 PM73 °FPassing clouds.8 mph74%29.74 "HgN/A
6:30 PM73 °FPartly sunny.8 mph74%29.74 "HgN/A
6:00 PM73 °FPartly sunny.10 mph74%29.71 "HgN/A
5:30 PM75 °FPartly sunny.10 mph69%29.71 "HgN/A
5:00 PM75 °FPartly sunny.10 mph74%29.71 "HgN/A
4:30 PM75 °FPartly sunny.13 mph74%29.71 "HgN/A
4:00 PM75 °FPartly sunny.8 mph74%29.71 "HgN/A
3:30 PM75 °FPartly sunny.10 mph74%29.71 "HgN/A
3:00 PM75 °FPartly sunny.8 mph74%29.71 "HgN/A
2:30 PM73 °FPartly sunny.10 mph78%29.71 "HgN/A
2:00 PM75 °FPartly sunny.13 mph74%29.71 "HgN/A
1:30 PM75 °FPartly sunny.10 mph74%29.71 "HgN/A
1:00 PM73 °FPartly sunny.15 mph78%29.71 "HgN/A
12:30 PM73 °FPartly sunny.13 mph78%29.71 "HgN/A
12:00 PM73 °FPartly sunny.10 mph83%29.71 "HgN/A
11:30 AM75 °FPartly sunny.10 mph78%29.71 "HgN/A
11:00 AM73 °FPartly sunny.10 mph83%29.71 "HgN/A
10:30 AM73 °FPartly sunny.10 mph83%29.71 "Hg5 mi
10:00 AM73 °FPartly sunny.10 mph83%29.71 "Hg4 mi
9:30 AM72 °FPartly sunny.10 mph88%29.71 "Hg4 mi
9:00 AM72 °FPartly sunny.15 mph83%29.71 "Hg4 mi
8:30 AM72 °FPartly sunny.15 mph88%29.71 "Hg4 mi
8:00 AM72 °FPartly sunny.15 mph83%29.68 "Hg4 mi
7:30 AM72 °FFog.15 mph88%29.68 "Hg3 mi
7:00 AM72 °FFog.15 mph88%29.65 "Hg3 mi
6:30 AM72 °FFog.13 mph88%29.65 "Hg3 mi
6:00 AM72 °FFog.10 mph83%29.65 "Hg3 mi
5:30 AM72 °FFog.13 mph88%29.62 "Hg3 mi
4:30 AM72 °FFog.13 mph88%29.59 "Hg3 mi
4:00 AM73 °FFog.10 mph89%29.59 "Hg3 mi
3:30 AM73 °FFog.8 mph89%29.59 "Hg2 mi
3:00 AM73 °FFog.6 mph89%29.59 "Hg2 mi
2:30 AM73 °FFog.6 mph89%29.59 "Hg3 mi
2:00 AM73 °FFog.3 mph89%29.59 "Hg3 mi
1:30 AM73 °FPassing clouds.3 mph89%29.59 "Hg4 mi
1:00 AM73 °FPassing clouds.3 mph89%29.62 "HgN/A
12:30 AM73 °FPassing clouds.6 mph89%29.62 "HgN/A
12:00 AM73 °FPassing clouds.1 mph89%29.62 "HgN/A
11:30 PM
Fri, May 29
73 °FPassing clouds.3 mph89%29.62 "HgN/A
11:00 PM73 °FPassing clouds.3 mph89%29.62 "HgN/A
10:30 PM73 °FPassing clouds.3 mph89%29.62 "HgN/A
10:00 PM73 °FClear.8 mph89%29.62 "Hg10 mi
9:30 PM73 °FPassing clouds.3 mph89%29.62 "HgN/A
9:00 PM73 °FPassing clouds.3 mph89%29.59 "HgN/A
8:30 PM73 °FClear.8 mph89%29.59 "Hg10 mi
8:00 PM73 °FPassing clouds.8 mph89%29.59 "HgN/A
Weather by CustomWeather, © 2015

See weather overviewHow to use our weather pages